Regional Weather Roundup
Issued by NWS

Home | Current Version | Previous Version | Graphics & Text | Print | Product List | Glossary On
Versions: 1 2 3 4 5 6 7 8 9 10 11 12 13 14 15 16 17 18 19 20 21 22 23 24 25 26 27 28 29 30 31 32 33 34 35 36 37 38 39 40 41 42 43 44 45 46 47 48 49 50
105
ASUS43 KDTX 240901
RWRMI
MICHIGAN HOURLY REGIONAL WEATHER ROUNDUP
NATIONAL WEATHER SERVICE DETROIT/PONTIAC MI
500 AM EDT FRI MAR 24 2017

NOTE: "FAIR" INDICATES FEW OR NO CLOUDS BELOW 12,000 FEET WITH NO
SIGNIFICANT WEATHER AND/OR OBSTRUCTION TO VISIBILITY.

MIZ047>049-052>055-059>063-066>070-074>076-081>083-241000-
SOUTHEAST LOWER MICHIGAN

CITY           SKY/WX    TMP DP  RH WIND       PRES   REMARKS
ADRIAN         CLOUDY    40  37  89 S7        30.04F
ALMA           CLOUDY    38  37  94 CALM      29.98F
ANN ARBOR      CLOUDY    41  37  86 S9        30.02F
BAD AXE        CLOUDY    36  31  83 S9        29.99F WCI  29
CARO           CLOUDY    38  33  83 CALM      30.00R
DETROIT CITY   CLOUDY    41  39  93 SW9       30.01F
DETROIT        CLOUDY    46  38  73 S15       30.03F
FLINT          CLOUDY    44  37  76 SW8       30.00R
GROSSE ILE     CLOUDY    43  37  78 SW18G26   30.02F
HILLSDALE      PTCLDY    41  34  75 S10       30.00F
HOWELL         CLOUDY    46  35  67 SW9       30.00R

CITY           SKY/WX    TMP DP  RH WIND       PRES   REMARKS
JACKSON        CLOUDY    46  37  71 S9G20     30.00F
LAMBERTVILLE   PTCLDY    45  37  75 S7        30.04F
LANSING        PTCLDY    45  35  68 SW12      29.99R
LAPEER         MOCLDY    42  37  82 S8        29.98F
MASON          CLOUDY    43  37  79 S6        29.99S
MONROE         MOCLDY    42  38  88 S9        30.03F
MT. CLEMENS    CLOUDY    41  40  99 S10       30.00F
PONTIAC        CLOUDY    42  37  82 MISG      29.99F
PORT HOPE        N/A     36  31  82 CALM      29.99F
PORT HURON     DRIZZLE   39  36  87 S12       30.02F WCI  32
TRI CITIES     CLOUDY    39  36  89 CALM      29.99S
MIDLAND        CLOUDY    39  33  77 CALM      29.97F
TROY           MOCLDY    40  37  89 SW7       30.03F
SAGINAW HB     CLOUDY    39  34  81 CALM      29.99S
$$
MIZ043>046-050>051-056>058-064>065-071>073-077>080-241000-
SOUTHWEST LOWER MICHIGAN

CITY           SKY/WX    TMP DP  RH WIND       PRES   REMARKS
BATTLE CREEK   PTCLDY    46  38  73 SW16      29.98F
BENTON HARBOR  CLOUDY    50  36  58 S9        29.96F
BIG RAPIDS     MIX PCPN  37  34  89 S3        29.93F
COLDWATER      MOCLDY    49  36  62 S10G16    29.99F
FREMONT        LGT RAIN  41  37  85 SE6       29.93F
HOLLAND        CLOUDY    44  36  73 S8        29.95F
GRAND RAPIDS   CLOUDY    44  36  73 S9        29.95F
IONIA          FAIR      42  35  75 S6        29.96F
KALAMAZOO      PTCLDY    46  36  68 S9        29.98F
LUDINGTON      CLOUDY    44  35  71 S8        29.91F
MARSHALL       CLOUDY    49  38  65 S8G16     29.98F
MOUNT PLEASANT CLOUDY    38  34  85 SE6       29.96F WCI  33
MUSKEGON       MOCLDY    49  35  58 S16G29    29.94F
SOUTH HAVEN    PTCLDY    50  37  60 S8G18     29.95F
$$
MIZ016>042-241000-
NORTHERN LOWER MICHIGAN

CITY           SKY/WX    TMP DP  RH WIND       PRES   REMARKS
ALPENA         FRZ RAIN  32  32 100 SE6       30.00F WCI  26
BEAVER ISLAND  CLOUDY    33  32  96 SE6       29.92F WCI  27
BELLAIRE       FLURRIES  34  32  93 CALM      29.95F
CADILLAC       LGT RAIN  37  34  91 CALM      29.90F
CHARLEVOIX     LGT RAIN  33  33  98 SE6       29.97F WCI  28
FRANKFORT      CLOUDY    42  33  71 SW5       29.92F
GAYLORD        LGT RAIN  33  28  81 CALM      29.93F
GRAYLING       CLOUDY    32  32 100 CALM      29.94F
HARBOR SPRINGS MIX PCPN  32  32  99 NE6       29.95F WCI  26
HOUGHTON LAKE  LGT RAIN  36  30  79 S7        29.93F WCI  30
MANISTEE       LGT RAIN  39  36  89 E5        29.90F
OSCODA         CLOUDY    34  32  93 E3        29.99F
PELLSTON       FRZ RAIN  32  29  88 SE6       29.96F WCI  26
ROGERS CITY    MIX PCPN  32  30  92 S6        29.99F WCI  27
TRAVERSE CITY  CLOUDY    36  33  89 NE5       29.92F WCI  32
$$
MIZ007>008-015-241000-
EASTERN UPPER MICHIGAN

CITY           SKY/WX    TMP DP  RH WIND       PRES   REMARKS
KINROSS        MIX PCPN  31  30  96 S7        29.94F WCI  24
MACKINAC ISLAN CLOUDY    31  31 100 SE7       29.94F WCI  24
NEWBERRY       CLOUDY    31  31  98 SE3       29.91F
S. S. MARIE    CLOUDY    33  30  88 SE7       29.95F WCI  27
MUNISING         N/A     33  32  96 CALM      29.89F
$$
MIZ004>006-011>014-085-241000-
CENTRAL UPPER MICHIGAN

CITY           SKY/WX    TMP DP  RH WIND       PRES   REMARKS
MANISTIQUE     MIX PCPN  32  32 100 SE7       29.90F WCI  26
ESCANABA       CLOUDY    34  33  96 CALM      29.91S FOG
MENOMINEE        N/A    N/A N/A N/A MISG        N/A
SAWYER-GWINN   MIX PCPN  32  31  97 CALM      29.87F
$$
MIZ001>003-009>011-084-241000-
WESTERN UPPER MICHIGAN

CITY           SKY/WX    TMP DP  RH WIND       PRES   REMARKS
IRON MOUNTAIN  CLOUDY    32  28  85 CALM      29.86F FOG
HOUGHTON       CLOUDY    32  30  92 SW5       29.89R FOG     WCI  27
COPPER HARBOR    N/A     33  31  92 W5        29.89F WCI  29
IRONWOOD       CLOUDY    33  31  92 CALM      29.90S FOG
$$

ABBREVIATIONS USED IN REMARKS
   TC - TEMPERATURE IN CELSIUS
  WCI - WIND CHILL INDEX
   HX - HEAT INDEX
  VSB - VISIBILITY





USA.gov is the U.S. government's official web portal to all federal, state and local government web resources and services.